| time (UTC) | temp F | wind direction | speed MPH | gust MPH | rain 1hr in | rain 24hr in | rain mn in | humidity % | barometer mb |
| 20260906234019 | 60 | 190 | 0.0 | 2.0 | 0.00 | 0.48 | 0.47 | 88 | 1014.9 |
| 20260906233016 | 61 | 237 | 1.0 | 2.0 | 0.00 | 0.48 | 0.47 | 87 | 1014.8 |
| 20260906232020 | 63 | 193 | 0.0 | 2.0 | 0.00 | 0.48 | 0.47 | 86 | 1014.8 |
| 20260906231020 | 64 | 193 | 0.0 | 2.0 | 0.00 | 0.48 | 0.47 | 84 | 1014.8 |
| 20260906230020 | 66 | 186 | 0.0 | 1.0 | 0.00 | 0.48 | 0.47 | 83 | 1014.8 |
| 20260906225037 | 67 | 220 | 0.0 | 2.0 | 0.00 | 0.48 | 0.47 | 79 | 1014.7 |
| 20260906224017 | 68 | 164 | 0.0 | 1.0 | 0.00 | 0.48 | 0.47 | 76 | 1014.6 |
| 20260906223020 | 68 | 170 | 0.0 | 1.0 | 0.00 | 0.48 | 0.47 | 75 | 1014.6 |
| 20260906222020 | 69 | 94 | 0.0 | 1.0 | 0.00 | 0.48 | 0.47 | 74 | 1014.5 |
| 20260906221020 | 68 | 143 | 0.0 | 1.0 | 0.00 | 0.48 | 0.47 | 75 | 1014.3 |
| 20260906220058 | 68 | 99 | 0.0 | 2.0 | 0.00 | 0.48 | 0.47 | 76 | 1014.3 |
| 20260906215038 | 68 | 129 | 0.0 | 1.0 | 0.00 | 0.48 | 0.47 | 74 | 1014.3 |
| 20260906214018 | 69 | 82 | 0.0 | 1.0 | 0.00 | 0.48 | 0.47 | 71 | 1014.4 |
| 20260906213021 | 69 | 84 | 0.0 | 2.0 | 0.00 | 0.48 | 0.47 | 72 | 1014.4 |
| 20260906212018 | 69 | 136 | 0.0 | 1.0 | 0.00 | 0.48 | 0.47 | 72 | 1014.3 |
| 20260906211040 | 69 | 84 | 0.0 | 1.0 | 0.00 | 0.48 | 0.47 | 69 | 1014.2 |
| 20260906210018 | 70 | 185 | 0.0 | 3.0 | 0.00 | 0.48 | 0.47 | 68 | 1014.1 |
| 20260906205018 | 71 | 78 | 0.0 | 1.0 | 0.00 | 0.48 | 0.47 | 66 | 1014.0 |
| 20260906204021 | 71 | 332 | 1.0 | 3.0 | 0.00 | 0.48 | 0.47 | 66 | 1013.9 |
| 20260906203019 | 71 | 288 | 1.0 | 4.0 | 0.00 | 0.48 | 0.47 | 66 | 1014.0 |
| 20260906202019 | 71 | 147 | 1.0 | 5.0 | 0.00 | 0.48 | 0.47 | 65 | 1014.0 |
| 20260906201019 | 71 | 346 | 1.0 | 2.0 | 0.00 | 0.48 | 0.47 | 66 | 1014.1 |
| 20260906200019 | 70 | 184 | 1.0 | 4.0 | 0.00 | 0.48 | 0.47 | 68 | 1014.1 |
| 20260906195017 | 70 | 266 | 1.0 | 4.0 | 0.00 | 0.48 | 0.47 | 70 | 1014.2 |
| 20260906194037 | 70 | 196 | 1.0 | 3.0 | 0.00 | 0.48 | 0.47 | 69 | 1014.2 |
| 20260906193020 | 68 | 174 | 1.0 | 3.0 | 0.00 | 0.48 | 0.47 | 76 | 1014.2 |
| 20260906192020 | 68 | 146 | 0.0 | 1.0 | 0.00 | 0.48 | 0.47 | 76 | 1014.3 |
| 20260906191020 | 69 | 93 | 1.0 | 2.0 | 0.00 | 0.48 | 0.47 | 69 | 1014.3 |
| 20260906190020 | 69 | 184 | 1.0 | 3.0 | 0.00 | 0.48 | 0.47 | 71 | 1014.4 |
| 20260906185017 | 69 | 294 | 1.0 | 5.0 | 0.00 | 0.48 | 0.47 | 72 | 1014.5 |
| 20260906184018 | 68 | 229 | 1.0 | 4.0 | 0.00 | 0.48 | 0.47 | 75 | 1014.6 |
| 20260906183020 | 67 | 186 | 1.0 | 3.0 | 0.00 | 0.48 | 0.47 | 78 | 1014.7 |
| 20260906182041 | 66 | 210 | 1.0 | 3.0 | 0.00 | 0.48 | 0.47 | 78 | 1014.8 |
| 20260906181038 | 65 | 144 | 2.0 | 4.0 | 0.00 | 0.48 | 0.47 | 83 | 1014.9 |
| 20260906180038 | 63 | 156 | 1.0 | 2.0 | 0.02 | 0.48 | 0.47 | 84 | 1014.9 |
| 20260906175037 | 63 | 205 | 1.0 | 2.0 | 0.05 | 0.48 | 0.47 | 88 | 1015.1 |
| 20260906174018 | 62 | 236 | 0.0 | 2.0 | 0.05 | 0.48 | 0.47 | 90 | 1015.3 |
| 20260906173018 | 62 | 102 | 1.0 | 2.0 | 0.05 | 0.48 | 0.47 | 90 | 1015.3 |
| 20260906172018 | 61 | 28 | 0.0 | 1.0 | 0.05 | 0.48 | 0.47 | 90 | 1015.5 |
| 20260906171019 | 62 | 101 | 1.0 | 3.0 | 0.05 | 0.48 | 0.47 | 87 | 1015.6 |
| 20260906170022 | 64 | 274 | 1.0 | 3.0 | 0.03 | 0.46 | 0.45 | 82 | 1015.6 |
| 20260906165019 | 67 | 327 | 1.0 | 5.0 | 0.00 | 0.43 | 0.42 | 74 | 1015.4 |
| 20260906164019 | 67 | 97 | 1.0 | 3.0 | 0.00 | 0.43 | 0.42 | 73 | 1015.4 |
| 20260906163019 | 68 | 340 | 1.0 | 3.0 | 0.00 | 0.43 | 0.42 | 72 | 1015.4 |
| 20260906162019 | 68 | 55 | 1.0 | 4.0 | 0.00 | 0.43 | 0.42 | 72 | 1015.3 |
| 20260906161019 | 66 | 53 | 1.0 | 3.0 | 0.00 | 0.43 | 0.42 | 78 | 1015.5 |
| 20260906160019 | 66 | 100 | 1.0 | 3.0 | 0.00 | 0.43 | 0.42 | 77 | 1015.5 |
| 20260906155016 | 66 | 348 | 1.0 | 2.0 | 0.00 | 0.43 | 0.42 | 76 | 1015.5 |
| 20260906154020 | 66 | 356 | 1.0 | 3.0 | 0.00 | 0.43 | 0.42 | 74 | 1015.6 |
| 20260906153020 | 65 | 333 | 1.0 | 5.0 | 0.00 | 0.43 | 0.42 | 78 | 1015.7 |
| 20260906152020 | 65 | 299 | 1.0 | 4.0 | 0.00 | 0.43 | 0.42 | 78 | 1015.7 |
| 20260906151017 | 64 | 283 | 2.0 | 4.0 | 0.00 | 0.43 | 0.42 | 81 | 1015.8 |
| 20260906150017 | 63 | 298 | 1.0 | 3.0 | 0.00 | 0.43 | 0.42 | 84 | 1016.0 |
| 20260906145020 | 63 | 16 | 1.0 | 2.0 | 0.00 | 0.43 | 0.42 | 85 | 1016.1 |
| 20260906144101 | 62 | 64 | 0.0 | 1.0 | 0.00 | 0.43 | 0.42 | 85 | 1016.1 |
| 20260906143018 | 62 | 334 | 1.0 | 2.0 | 0.00 | 0.43 | 0.42 | 83 | 1016.0 |
| 20260906142018 | 62 | 8 | 1.0 | 2.0 | 0.00 | 0.43 | 0.42 | 84 | 1015.9 |
| 20260906141017 | 63 | 313 | 2.0 | 3.0 | 0.00 | 0.43 | 0.42 | 83 | 1015.8 |
| 20260906140016 | 63 | 311 | 2.0 | 3.0 | 0.00 | 0.43 | 0.42 | 83 | 1015.7 |
| 20260906135021 | 62 | 99 | 1.0 | 4.0 | 0.00 | 0.43 | 0.42 | 83 | 1015.8 |
| 20260906134018 | 62 | 7 | 0.0 | 2.0 | 0.00 | 0.43 | 0.42 | 83 | 1015.7 |
| 20260906133018 | 62 | 353 | 0.0 | 2.0 | 0.00 | 0.43 | 0.42 | 86 | 1015.7 |
| 20260906132019 | 61 | 16 | 0.0 | 2.0 | 0.00 | 0.43 | 0.42 | 88 | 1015.7 |
| 20260906131017 | 61 | 289 | 1.0 | 3.0 | 0.00 | 0.43 | 0.42 | 89 | 1015.7 |
| 20260906130017 | 61 | 347 | 1.0 | 3.0 | 0.00 | 0.43 | 0.42 | 92 | 1015.6 |
| 20260906125017 | 60 | 322 | 1.0 | 2.0 | 0.00 | 0.43 | 0.42 | 94 | 1015.8 |
| 20260906124017 | 60 | 321 | 1.0 | 2.0 | 0.00 | 0.43 | 0.42 | 95 | 1015.7 |
| 20260906123017 | 60 | 272 | 1.0 | 2.0 | 0.00 | 0.43 | 0.42 | 96 | 1015.8 |
| 20260906122017 | 60 | 90 | 0.0 | 1.0 | 0.00 | 0.43 | 0.42 | 97 | 1015.6 |
| 20260906121018 | 59 | 317 | 0.0 | 1.0 | 0.00 | 0.43 | 0.42 | 97 | 1015.5 |
| 20260906120020 | 59 | 290 | 0.0 | 2.0 | 0.00 | 0.43 | 0.42 | 97 | 1015.5 |
| 20260906115018 | 59 | 0.0 | 0.0 | 0.00 | 0.43 | 0.42 | 97 | 1015.5 | |
| 20260906114018 | 59 | 88 | 0.0 | 2.0 | 0.00 | 0.43 | 0.42 | 97 | 1015.3 |
| 20260906113018 | 58 | 127 | 0.0 | 1.0 | 0.00 | 0.43 | 0.42 | 97 | 1015.2 |
| 20260906112118 | 58 | 125 | 0.0 | 1.0 | 0.00 | 0.43 | 0.42 | 97 | 1015.1 |
| 20260906111038 | 58 | 259 | 0.0 | 1.0 | 0.00 | 0.43 | 0.42 | 97 | 1014.9 |
| 20260906110019 | 58 | 291 | 1.0 | 1.0 | 0.00 | 0.42 | 0.42 | 97 | 1014.8 |
| 20260906105020 | 58 | 98 | 0.0 | 1.0 | 0.00 | 0.42 | 0.42 | 97 | 1014.7 |
| 20260906104019 | 58 | 133 | 0.0 | 1.0 | 0.02 | 0.42 | 0.42 | 97 | 1014.6 |
| 20260906103019 | 58 | 299 | 0.0 | 1.0 | 0.03 | 0.42 | 0.42 | 97 | 1014.5 |
| 20260906102019 | 58 | 119 | 0.0 | 1.0 | 0.03 | 0.42 | 0.42 | 97 | 1014.4 |
| 20260906101020 | 58 | 78 | 0.0 | 0.0 | 0.07 | 0.42 | 0.42 | 97 | 1014.4 |
| 20260906100019 | 58 | 124 | 0.0 | 1.0 | 0.10 | 0.42 | 0.42 | 97 | 1014.2 |
| 20260906095040 | 58 | 63 | 0.0 | 1.0 | 0.10 | 0.42 | 0.41 | 97 | 1014.1 |
| 20260906094020 | 58 | 292 | 0.0 | 1.0 | 0.09 | 0.40 | 0.40 | 97 | 1014.2 |
| 20260906093020 | 59 | 0.0 | 0.0 | 0.08 | 0.40 | 0.39 | 97 | 1014.3 | |
| 20260906092020 | 59 | 321 | 0.0 | 1.0 | 0.12 | 0.39 | 0.38 | 97 | 1014.1 |
| 20260906091020 | 59 | 31 | 0.0 | 1.0 | 0.09 | 0.35 | 0.35 | 97 | 1013.8 |
| 20260906090020 | 59 | 137 | 1.0 | 2.0 | 0.07 | 0.32 | 0.32 | 97 | 1014.0 |
| 20260906085040 | 59 | 163 | 0.0 | 1.0 | 0.08 | 0.32 | 0.31 | 96 | 1013.9 |
| 20260906084021 | 59 | 218 | 0.0 | 2.0 | 0.12 | 0.32 | 0.31 | 96 | 1013.9 |
| 20260906083020 | 59 | 119 | 0.0 | 1.0 | 0.14 | 0.31 | 0.31 | 96 | 1013.9 |
| 20260906082041 | 60 | 307 | 1.0 | 1.0 | 0.12 | 0.26 | 0.26 | 96 | 1013.8 |
| 20260906081021 | 60 | 311 | 0.0 | 1.0 | 0.14 | 0.26 | 0.25 | 97 | 1013.6 |
| 20260906080041 | 60 | 109 | 0.0 | 1.0 | 0.14 | 0.26 | 0.25 | 97 | 1013.4 |
| 20260906075041 | 60 | 311 | 1.0 | 1.0 | 0.13 | 0.24 | 0.23 | 97 | 1013.3 |
| 20260906074021 | 60 | 128 | 0.0 | 1.0 | 0.10 | 0.20 | 0.19 | 96 | 1013.3 |
| 20260906073041 | 60 | 111 | 0.0 | 1.0 | 0.09 | 0.17 | 0.17 | 96 | 1013.4 |
| 20260906072021 | 60 | 164 | 0.0 | 1.0 | 0.06 | 0.14 | 0.14 | 96 | 1013.3 |
| 20260906071042 | 61 | 109 | 0.0 | 1.0 | 0.04 | 0.13 | 0.12 | 96 | 1013.2 |
| 20260906070022 | 60 | 102 | 0.0 | 1.0 | 0.03 | 0.12 | 0.11 | 96 | 1013.2 |
| 20260906065022 | 61 | 20 | 0.0 | 1.0 | 0.02 | 0.11 | 0.10 | 96 | 1013.2 |
| 20260906064022 | 61 | 156 | 0.0 | 1.0 | 0.01 | 0.09 | 0.09 | 96 | 1013.3 |
| 20260906063022 | 61 | 134 | 0.0 | 1.0 | 0.01 | 0.09 | 0.08 | 96 | 1013.2 |
| 20260906062022 | 61 | 193 | 0.0 | 2.0 | 0.01 | 0.09 | 0.08 | 96 | 1013.2 |
| 20260906061042 | 61 | 117 | 0.0 | 1.0 | 0.03 | 0.09 | 0.08 | 96 | 1013.2 |
| 20260906060023 | 61 | 252 | 0.0 | 1.0 | 0.04 | 0.09 | 0.08 | 96 | 1013.3 |
| 20260906055023 | 61 | 234 | 0.0 | 1.0 | 0.06 | 0.09 | 0.08 | 95 | 1013.3 |
| 20260906054023 | 61 | 170 | 0.0 | 1.0 | 0.06 | 0.09 | 0.08 | 95 | 1013.2 |
| 20260906053023 | 61 | 54 | 0.0 | 0.0 | 0.05 | 0.08 | 0.07 | 95 | 1013.2 |
| 20260906052023 | 61 | 99 | 0.0 | 1.0 | 0.07 | 0.08 | 0.07 | 95 | 1013.2 |
| 20260906051023 | 61 | 138 | 0.0 | 1.0 | 0.05 | 0.05 | 0.05 | 95 | 1013.3 |
| 20260906050023 | 61 | 124 | 0.0 | 1.0 | 0.04 | 0.04 | 0.04 | 95 | 1013.5 |
| 20260906045023 | 62 | 175 | 0.0 | 1.0 | 0.02 | 0.03 | 0.02 | 95 | 1013.4 |
| 20260906044043 | 62 | 301 | 0.0 | 1.0 | 0.02 | 0.03 | 0.02 | 95 | 1013.4 |
| 20260906043024 | 62 | 45 | 0.0 | 1.0 | 0.02 | 0.03 | 0.02 | 95 | 1013.3 |
| 20260906042024 | 62 | 289 | 0.0 | 1.0 | 0.00 | 0.01 | 0.00 | 95 | 1013.3 |
| 20260906041024 | 62 | 273 | 0.0 | 1.0 | 0.00 | 0.01 | 0.00 | 95 | 1013.3 |
| 20260906040024 | 62 | 205 | 0.0 | 1.0 | 0.00 | 0.01 | 0.00 | 94 | 1013.3 |
| 20260906035024 | 62 | 195 | 0.0 | 1.0 | 0.00 | 0.01 | 0.01 | 94 | 1013.3 |
| 20260906034024 | 62 | 188 | 0.0 | 1.0 | 0.00 | 0.01 | 0.01 | 94 | 1013.2 |
| 20260906033045 | 62 | 285 | 0.0 | 1.0 | 0.00 | 0.01 | 0.01 | 94 | 1013.2 |
| 20260906032025 | 62 | 12 | 0.0 | 1.0 | 0.00 | 0.01 | 0.01 | 93 | 1013.1 |
| 20260906031025 | 62 | 23 | 0.0 | 1.0 | 0.00 | 0.01 | 0.01 | 93 | 1013.1 |
| 20260906030025 | 62 | 165 | 0.0 | 1.0 | 0.00 | 0.01 | 0.01 | 92 | 1013.0 |
| 20260906025018 | 62 | 108 | 0.0 | 2.0 | 0.00 | 0.01 | 0.01 | 92 | 1013.0 |
| 20260906024018 | 62 | 314 | 1.0 | 2.0 | 0.01 | 0.01 | 0.01 | 91 | 1013.1 |
| 20260906023038 | 63 | 91 | 0.0 | 2.0 | 0.01 | 0.01 | 0.01 | 90 | 1013.0 |
| 20260906022019 | 63 | 208 | 0.0 | 1.0 | 0.00 | 0.01 | 0.01 | 89 | 1013.1 |
| 20260906021018 | 63 | 75 | 0.0 | 1.0 | 0.00 | 0.01 | 0.01 | 89 | 1013.1 |
| 20260906020018 | 63 | 57 | 0.0 | 1.0 | 0.00 | 0.01 | 0.01 | 88 | 1013.1 |
| 20260906015018 | 63 | 216 | 0.0 | 2.0 | 0.00 | 0.01 | 0.01 | 87 | 1013.1 |
| 20260906014059 | 63 | 103 | 0.0 | 1.0 | 0.00 | 0.00 | 0.00 | 87 | 1013.2 |
| 20260906013018 | 63 | 89 | 0.0 | 1.0 | 0.00 | 0.00 | 0.00 | 87 | 1013.1 |
| 20260906012019 | 63 | 97 | 0.0 | 1.0 | 0.00 | 0.00 | 0.00 | 87 | 1013.1 |
| 20260906011016 | 64 | 176 | 0.0 | 1.0 | 0.00 | 0.00 | 0.00 | 86 | 1013.0 |
| 20260906010016 | 64 | 110 | 0.0 | 1.0 | 0.00 | 0.00 | 0.00 | 85 | 1012.9 |
| 20260906005019 | 64 | 71 | 0.0 | 1.0 | 0.00 | 0.00 | 0.00 | 84 | 1012.9 |
| 20260906004020 | 64 | 183 | 0.0 | 1.0 | 0.00 | 0.00 | 0.00 | 84 | 1012.9 |
| 20260906003020 | 64 | 162 | 0.0 | 2.0 | 0.00 | 0.00 | 0.00 | 83 | 1012.7 |
| 20260906002017 | 64 | 217 | 0.0 | 1.0 | 0.00 | 0.00 | 0.00 | 82 | 1012.7 |
| 20260906001017 | 64 | 96 | 0.0 | 1.0 | 0.00 | 0.00 | 0.00 | 81 | 1012.7 |
| 20260906000040 | 64 | 94 | 0.0 | 1.0 | 0.00 | 0.00 | 0.00 | 81 | 1012.6 |
| 20260905235020 | 65 | 356 | 0.0 | 1.0 | 0.00 | 0.00 | 0.00 | 81 | 1012.6 |